Location: Newark
(40.9833°N, 0.0333°W)
Time: 02:30:42
(UTC+00:00)

Altair - Pass Details

Date: 04 November 2020
Orbit: 1502 x 1682 km, 47.2° (Epoch: 02 December)

Event Time Altitude Azimuth Distance (km) Brightness Sun altitude
Rises 02:54:50 0° 228° (SW) 4,624 - -41.6°
Reaches altitude 10° 02:57:51 10° 227° (SW) 3,646 - -41.1°
Maximum altitude 03:06:55 71° 145° (SE) 1,593 - -39.4°
Exits shadow 03:07:36 68° 118° (ESE) 1,614 7.5 -39.3°
Drops below altitude 10° 03:16:14 10° 64° (ENE) 3,736 10.2 -37.7°
Sets 03:19:21 0° 63° (ENE) 4,744 11.0 -37.1°
